When you browse on this site, cookies collect data to enhance your experience and personalize the content and advertising you see.
Visit our Privacy Policy to learn more. By continuing to use the site, you agree to this use of cookies and data.
  • en Suisse
  • Liste des pays
  • À 7 jours
  • Température de l'eau
  • Carte satellitaire
  • Carte météo
  • Widgets météo
  • user-avatar
    Se connecter

    Météo par heure à Lehrte

    Ce jour, 26 Mai, Dimanche

    Heure Température Précipitation Vent Pression Humidité
    00:00 +10°C° 0 mm 1 m/s 757 mmHg 88%
    01:00 +10°C° 0 mm 1 m/s 756 mmHg 92%
    02:00 +9°C° 0 mm 1 m/s 756 mmHg 92%
    03:00 +8°C° 0 mm 2 m/s 756 mmHg 93%
    04:00 +8°C° 0 mm 3 m/s 756 mmHg 93%
    05:00 +10°C° 0 mm 3 m/s 755 mmHg 89%
    06:00 +11°C° 0 mm 4 m/s 755 mmHg 85%
    07:00 +13°C° 0 mm 5 m/s 755 mmHg 81%
    08:00 +14°C° 0 mm 5 m/s 754 mmHg 75%
    09:00 +16°C° 0 mm 6 m/s 754 mmHg 70%
    10:00 +17°C° 0 mm 6 m/s 754 mmHg 64%
    11:00 +19°C° 0 mm 6 m/s 753 mmHg 64%
    12:00 +20°C° 0 mm 6 m/s 753 mmHg 63%
    13:00 +20°C° 0 mm 7 m/s 753 mmHg 62%
    14:00 +21°C° 0 mm 6 m/s 752 mmHg 64%
    15:00 +21°C° 0 mm 6 m/s 752 mmHg 66%
    16:00 +21°C° 0 mm 6 m/s 752 mmHg 68%
    17:00 +20°C° 0.1 mm 6 m/s 751 mmHg 72%
    18:00 +19°C° 0.1 mm 5 m/s 751 mmHg 76%
    19:00 +18°C° 0.1 mm 4 m/s 750 mmHg 81%
    20:00 +18°C° 0 mm 4 m/s 750 mmHg 82%
    21:00 +16°C° 0 mm 5 m/s 751 mmHg 83%
    22:00 +15°C° 0 mm 5 m/s 751 mmHg 85%
    23:00 +15°C° 0 mm 5 m/s 750 mmHg 85%

    Demain, 27 Mai, Lundi

    Heure Température Précipitation Vent Pression Humidité
    00:00 +15°C° 0 mm 5 m/s 750 mmHg 86%
    01:00 +14°C° 0 mm 5 m/s 750 mmHg 87%
    02:00 +14°C° 0.4 mm 5 m/s 750 mmHg 89%
    03:00 +14°C° 0.4 mm 5 m/s 750 mmHg 91%
    04:00 +14°C° 0.4 mm 5 m/s 749 mmHg 93%
    05:00 +13°C° 0.5 mm 4 m/s 750 mmHg 94%
    06:00 +13°C° 0.5 mm 3 m/s 750 mmHg 94%
    07:00 +13°C° 0.5 mm 3 m/s 750 mmHg 94%
    08:00 +14°C° 0 mm 4 m/s 750 mmHg 85%
    09:00 +15°C° 0 mm 4 m/s 751 mmHg 76%
    10:00 +16°C° 0 mm 5 m/s 751 mmHg 67%
    11:00 +17°C° 0 mm 5 m/s 751 mmHg 65%
    12:00 +17°C° 0 mm 5 m/s 751 mmHg 62%
    13:00 +19°C° 0 mm 5 m/s 751 mmHg 60%
    14:00 +19°C° 0 mm 5 m/s 751 mmHg 60%
    15:00 +19°C° 0 mm 5 m/s 751 mmHg 60%
    16:00 +19°C° 0 mm 5 m/s 751 mmHg 60%
    17:00 +18°C° 0 mm 4 m/s 751 mmHg 64%
    18:00 +17°C° 0 mm 3 m/s 751 mmHg 68%
    19:00 +16°C° 0 mm 3 m/s 751 mmHg 71%
    20:00 +15°C° 0 mm 2 m/s 751 mmHg 73%
    21:00 +14°C° 0 mm 2 m/s 751 mmHg 75%
    22:00 +13°C° 0 mm 2 m/s 751 mmHg 76%
    23:00 +12°C° 0 mm 1 m/s 751 mmHg 81%

    Après-demain, 28 Mai, Mardi

    Heure Température Précipitation Vent Pression Humidité
    00:00 +11°C° 0 mm 1 m/s 751 mmHg 85%
    01:00 +10°C° 0 mm 1 m/s 751 mmHg 89%
    02:00 +9°C° 0 mm 0 m/s 751 mmHg 90%
    03:00 +8°C° 0 mm 0 m/s 751 mmHg 91%
    04:00 +8°C° 0 mm 0 m/s 750 mmHg 91%
    05:00 +9°C° 0 mm 0 m/s 750 mmHg 87%
    06:00 +11°C° 0 mm 1 m/s 750 mmHg 82%
    07:00 +13°C° 0 mm 1 m/s 750 mmHg 78%
    08:00 +14°C° 0 mm 1 m/s 750 mmHg 72%
    09:00 +16°C° 0 mm 1 m/s 750 mmHg 66%
    10:00 +17°C° 0 mm 2 m/s 749 mmHg 59%
    11:00 +18°C° 0.5 mm 2 m/s 749 mmHg 60%
    12:00 +18°C° 0.5 mm 2 m/s 749 mmHg 61%
    13:00 +18°C° 0.5 mm 2 m/s 749 mmHg 62%
    14:00 +18°C° 1.3 mm 2 m/s 749 mmHg 66%
    15:00 +18°C° 1.3 mm 2 m/s 748 mmHg 70%
    16:00 +17°C° 1.3 mm 2 m/s 748 mmHg 74%
    17:00 +16°C° 1.2 mm 2 m/s 749 mmHg 78%
    18:00 +16°C° 1.2 mm 1 m/s 749 mmHg 82%
    19:00 +15°C° 1.2 mm 1 m/s 749 mmHg 86%
    20:00 +14°C° 0.2 mm 1 m/s 749 mmHg 88%
    21:00 +13°C° 0.2 mm 2 m/s 750 mmHg 91%
    22:00 +12°C° 0.2 mm 2 m/s 750 mmHg 93%
    23:00 +12°C° 0.5 mm 2 m/s 751 mmHg 94%

    29 Mai, Mercredi

    Heure Température Précipitation Vent Pression Humidité
    00:00 +10°C° 0.5 mm 3 m/s 751 mmHg 95%
    01:00 +10°C° 0.5 mm 3 m/s 751 mmHg 96%
    02:00 +10°C° 0 mm 3 m/s 752 mmHg 96%
    03:00 +9°C° 0 mm 3 m/s 752 mmHg 95%
    04:00 +8°C° 0 mm 4 m/s 753 mmHg 95%
    05:00 +8°C° 0.1 mm 4 m/s 753 mmHg 94%
    06:00 +8°C° 0.1 mm 4 m/s 754 mmHg 93%
    07:00 +8°C° 0.1 mm 4 m/s 755 mmHg 91%
    08:00 +10°C° 0 mm 3 m/s 755 mmHg 83%
    09:00 +11°C° 0 mm 3 m/s 756 mmHg 74%
    10:00 +12°C° 0 mm 3 m/s 757 mmHg 65%
    11:00 +13°C° 0 mm 3 m/s 757 mmHg 61%
    12:00 +14°C° 0 mm 3 m/s 757 mmHg 56%
    13:00 +16°C° 0 mm 3 m/s 758 mmHg 52%
    14:00 +16°C° 0 mm 3 m/s 758 mmHg 54%
    15:00 +15°C° 0 mm 4 m/s 758 mmHg 56%
    16:00 +15°C° 0 mm 4 m/s 758 mmHg 59%
    17:00 +14°C° 0 mm 4 m/s 758 mmHg 62%
    18:00 +13°C° 0 mm 3 m/s 759 mmHg 66%
    19:00 +12°C° 0 mm 3 m/s 759 mmHg 69%
    20:00 +12°C° 0 mm 2 m/s 759 mmHg 72%
    21:00 +10°C° 0 mm 1 m/s 760 mmHg 76%
    22:00 +9°C° 0 mm 1 m/s 760 mmHg 79%
    23:00 +8°C° 0 mm 1 m/s 761 mmHg 81%

    30 Mai, Jeudi

    Heure Température Précipitation Vent Pression Humidité
    00:00 +7°C° 0 mm 0 m/s 761 mmHg 82%
    01:00 +6°C° 0 mm 0 m/s 761 mmHg 84%
    02:00 +6°C° 0 mm 0 m/s 761 mmHg 84%
    03:00 +6°C° 0 mm 0 m/s 761 mmHg 85%
    04:00 +6°C° 0 mm 1 m/s 761 mmHg 86%
    05:00 +8°C° 0 mm 1 m/s 761 mmHg 82%
    06:00 +10°C° 0 mm 1 m/s 761 mmHg 78%
    07:00 +10°C° 0 mm 2 m/s 761 mmHg 74%
    08:00 +13°C° 0 mm 2 m/s 761 mmHg 70%
    09:00 +14°C° 0 mm 3 m/s 761 mmHg 66%
    10:00 +17°C° 0 mm 3 m/s 761 mmHg 62%
    11:00 +17°C° 0.1 mm 3 m/s 761 mmHg 59%
    12:00 +18°C° 0.1 mm 4 m/s 761 mmHg 57%
    13:00 +19°C° 0.1 mm 4 m/s 760 mmHg 55%
    14:00 +18°C° 0.1 mm 4 m/s 760 mmHg 59%
    15:00 +18°C° 0.1 mm 4 m/s 760 mmHg 64%
    16:00 +17°C° 0.1 mm 4 m/s 760 mmHg 69%
    17:00 +15°C° 0.1 mm 4 m/s 760 mmHg 74%
    18:00 +14°C° 0.1 mm 3 m/s 760 mmHg 80%
    19:00 +13°C° 0.1 mm 3 m/s 760 mmHg 86%
    20:00 +13°C° 0.6 mm 2 m/s 760 mmHg 89%
    21:00 +13°C° 0.6 mm 1 m/s 761 mmHg 92%
    22:00 +12°C° 0.6 mm 1 m/s 761 mmHg 95%
    23:00 +12°C° 0.4 mm 1 m/s 761 mmHg 95%

    31 Mai, Vendredi

    Heure Température Précipitation Vent Pression Humidité
    00:00 +12°C° 0.4 mm 1 m/s 761 mmHg 95%
    01:00 +12°C° 0.4 mm 1 m/s 761 mmHg 95%
    02:00 +12°C° 0.2 mm 1 m/s 761 mmHg 96%
    03:00 +12°C° 0.2 mm 1 m/s 761 mmHg 96%
    04:00 +12°C° 0.2 mm 1 m/s 761 mmHg 96%
    05:00 +12°C° 0.6 mm 2 m/s 761 mmHg 96%
    06:00 +10°C° 0.6 mm 2 m/s 761 mmHg 96%
    07:00 +10°C° 0.6 mm 3 m/s 762 mmHg 95%
    08:00 +10°C° 0.1 mm 3 m/s 762 mmHg 92%
    09:00 +11°C° 0.1 mm 3 m/s 763 mmHg 88%
    10:00 +12°C° 0.1 mm 2 m/s 763 mmHg 85%
    11:00 +14°C° 0 mm 2 m/s 763 mmHg 79%
    12:00 +15°C° 0 mm 2 m/s 763 mmHg 72%
    13:00 +18°C° 0 mm 1 m/s 763 mmHg 66%
    14:00 +19°C° 0 mm 1 m/s 763 mmHg 64%
    15:00 +19°C° 0 mm 1 m/s 763 mmHg 63%
    16:00 +20°C° 0 mm 1 m/s 763 mmHg 61%
    17:00 +19°C° 0 mm 1 m/s 763 mmHg 67%
    18:00 +18°C° 0 mm 1 m/s 763 mmHg 73%
    19:00 +16°C° 0 mm 1 m/s 763 mmHg 78%
    20:00 +16°C° 0.2 mm 1 m/s 763 mmHg 82%
    21:00 +15°C° 0.2 mm 1 m/s 763 mmHg 86%
    22:00 +14°C° 0.2 mm 1 m/s 764 mmHg 90%
    23:00 +14°C° 0 mm 1 m/s 763 mmHg 91%
    Voir plus